Location: Byszew
(52.1813°N, 19.2693°E)
Time: 07:03:18
(UTC+00:00)

Cosmos 1844 Rocket - Visible Passes

Search period start: 16 June 2021 00:00
Search period end: 26 June 2021 00:00
Orbit: 823 x 845 km, 71.0° (Epoch: 15 June)

Date Brightness Start Highest point End Pass type
(mag) Time Alt. Az. Time Alt. Az. Time Alt. Az.
16 Jun 3.2 20:36:54 10° NW 20:42:26 53° WSW 20:47:39 11° S visible
17 Jun 3.1 20:19:39 10° NW 20:25:13 57° WSW 20:30:45 10° S visible
17 Jun 5.1 22:07:02 10° W 22:07:53 10° W 22:08:44 10° WSW visible
18 Jun 3.1 20:02:24 10° NW 20:08:00 62° WSW 20:13:35 10° SSE visible
18 Jun 5.0 21:48:59 10° WNW 21:50:45 11° W 21:52:31 10° WSW visible
19 Jun 5.0 21:31:16 10° WNW 21:33:36 13° W 21:35:56 10° WSW visible
20 Jun 5.0 21:13:42 10° WNW 21:16:27 14° W 21:19:13 10° SW visible
21 Jun 5.0 20:56:11 10° WNW 20:59:19 15° W 21:02:26 10° SW visible
22 Jun 5.0 20:38:44 10° WNW 20:42:10 17° W 20:45:35 10° SW visible
23 Jun 4.9 20:21:18 10° WNW 20:25:00 18° W 20:28:41 10° SW visible
24 Jun 4.9 20:03:55 10° NW 20:07:50 20° W 20:11:46 10° SW visible
